Zurück zum Katalog

STARLINK-3102

AktivKommunikationVLEO
NORAD 49151·PAYLOAD·🇺🇸 United States

Gestartet Sep 14, 2021 von Vandenberg Space Force Base

Loading…

Nächste Überflüge (nächste 24 Stunden)

TLE

AktuellSource: CelesTrak SupGP

Epoche: Sep 15, 2026, 01:41 UTC

1 49151C 21082X   26258.07062500  .00029659  00000+0  24857-2 0  2582
2 49151  69.9998 136.9496 0002787 274.0789 247.9368 14.98313141    16

Verfolge STARLINK-3102 in Echtzeit mit AllMySat

Download on the App Store